Regional Weather Roundup
Issued by NWS

Home | Current Version | Previous Version | Graphics & Text | Print | Product List | Glossary On
Versions: 1 2 3 4 5 6 7 8 9 10 11 12 13 14 15 16 17 18 19 20 21 22 23 24 25 26 27 28 29 30 31 32 33 34 35 36 37 38 39 40 41 42 43 44 45 46 47 48 49 50
000
ASUS43 KMPX 260110
RWRMN
WEATHER ROUNDUP FOR MINNESOTA
NATIONAL WEATHER SERVICE TWIN CITIES/CHANHASSEN MN
700 PM CST TUE NOV 25 2014


NOTE: "FAIR" INDICATES FEW OR NO CLOUDS BELOW 12,000 FEET WITH NO
SIGNIFICANT WEATHER AND/OR OBSTRUCTIONS TO VISIBILITY. N/A MEANS
CURRENT SKY AND/OR WEATHER CONDITIONS ARE NOT AVAILABLE.

MNZ060>063-068>070-260200-
   Twin Cities Metro

CITY           SKY/WX    TMP DP  RH WIND       PRES   REMARKS
TWIN CITIES    CLOUDY    23  15  71 SE8       30.02F WCI  14
ST PAUL        CLOUDY    24  15  68 SE7       30.04F WCI  16
CRYSTAL        CLOUDY    25  15  66 SE8       30.00F WCI  16
LAKEVILLE      CLOUDY    21  16  79 SE5       30.01F WCI  15
EDEN PRAIRIE   CLOUDY    24  14  65 SE9       30.00F WCI  14
SOUTH ST PAUL  CLOUDY    25  16  68 SE5       30.03F WCI  19
LAKE ELMO      CLOUDY    23  18  80 S5        30.03F WCI  17
$$
MNZ001>005-007-008-013>017-022>024-027-028-260200-
   Northwest Minnesota

CITY           SKY/WX    TMP DP  RH WIND       PRES   REMARKS
BEMIDJI        CLOUDY    17  11  76 E6        29.94S WCI   9
HALLOCK        LGT SNOW  14  10  85 N13       30.04R WCI   0
ROSEAU         PTCLDY    14   9  79 N9        30.01R WCI   2
WARROAD        LGT SNOW  12   9  85 N8        30.01R WCI   1
THIEF RVR FALL CLOUDY    21  16  79 NE6       29.98R WCI  14
CROOKSTON      CLOUDY    21  16  79 NE5       29.99R WCI  15
FOSSTON        CLOUDY    18  12  79 NE6       29.95R WCI   9
DETROIT LAKES  CLOUDY    23  14  68 SE9       29.92R WCI  13
MOORHEAD       CLOUDY    25  19  80 SE3       29.93S
PARK RAPIDS    CLOUDY    19  10  68 SE5       29.93R WCI  12
MAHNOMEN       CLOUDY    23  18  81 NE3       29.93R
$$
MNZ006-009>011-018-025>026-260200-
   North Central Minnesota

CITY           SKY/WX    TMP DP  RH WIND       PRES   REMARKS
BAUDETTE       FLURRIES  16  12  84 NE6       29.98R WCI   7
INTL FALLS     MOCLDY     7   3  84 CALM      29.98S
WASKISH        CLOUDY    18  16  93 CALM      29.97S
BIG FORK       CLOUDY    19   9  63 CALM      29.97F
LONGVILLE      MOCLDY    16   9  73 CALM      29.96S
GRAND RAPIDS   CLOUDY    18   7  62 SE3       29.96S
CRANE LAKE     CLOUDY    12   9  85 CALM      30.01R
ORR            CLOUDY    16   9  73 CALM      29.95R
COOK           MOCLDY    12   7  79 CALM      29.97R
WALKER         CLOUDY    19  11  69 CALM      29.95R
$$
MNZ012-019>021-037-260200-
   Northeast Minnesota

CITY           SKY/WX    TMP DP  RH WIND       PRES   REMARKS
DULUTH         CLOUDY    17   7  64 CALM      29.98R
ELY            MOCLDY     7   5  92 CALM      29.96S
HIBBING        CLOUDY    19   4  51 CALM      29.97S
EVELETH        CLOUDY    19   9  63 SW3       29.98S
DULUTH HARBOR  CLOUDY    19  12  73 CALM      30.05R
TWO HARBORS    CLOUDY    21  10  63 CALM      29.99S
SILVER BAY     PTCLDY    16   9  73 CALM      29.99R
GRAND MARAIS     N/A     21  10  62 NW6       30.02R WCI  13
G MARAIS ARPRT MOCLDY    10   3  72 CALM      29.94S
$$
MNZ029>031-032-039>041-046>048-054>057-064-260200-
   West Central Minnesota

CITY           SKY/WX    TMP DP  RH WIND       PRES   REMARKS
FERGUS FALLS   CLOUDY    21  10  63 SE9       29.94S WCI  11
WHEATON        CLOUDY    21  18  86 SE12      29.91F WCI   9
MORRIS         CLOUDY    23  18  80 SE14      29.90F WCI  11
ALEXANDRIA     CLOUDY    20  12  71 SE12      29.92F WCI   8
ELBOW LAKE       N/A     21  13  71 SE9       29.90F WCI  11
WADENA         CLOUDY    18   9  68 E3        29.93S
GLENWOOD       CLOUDY    21  16  79 SE9       29.93F WCI  11
APPLETON       CLOUDY    27  18  69 SE10      29.91F WCI  17
BENSON         CLOUDY    25  16  68 SE10      29.92F WCI  15
ORTONVILLE     CLOUDY    27  19  74 E12       29.89S WCI  16
MADISON        CLOUDY    30  25  80 SE8       29.90S WCI  23
WILLMAR        CLOUDY    25  16  68 SE12      29.95S WCI  14
$$
MNZ033>034-036-042>043-049>051-058-059-260200-
   Central Minnesota

CITY           SKY/WX    TMP DP  RH WIND       PRES   REMARKS
ST CLOUD       CLOUDY    21  11  65 SE5       29.98F WCI  15
SAUK CENTRE    CLOUDY    19  13  76 SE7       29.95F WCI  10
PAYNESVILLE    CLOUDY    20  12  69 E6        29.97R WCI  13
AITKIN         MOCLDY    18  10  73 CALM      29.97R
PINE RIVER     MOCLDY    16   9  73 E3        29.99S
BRAINERD       CLOUDY    17   7  64 CALM      29.97S
STAPLES        CLOUDY    18   9  68 SE5       29.94F WCI  11
LONG PRAIRIE   CLOUDY    19  10  68 E5        29.95S WCI  13
LITTLE FALLS   CLOUDY    18  10  73 SE5       29.98S WCI  11
LITCHFIELD     CLOUDY    25  16  68 SE7       29.97S WCI  17
BUFFALO        MOCLDY    22  13  67 E5        30.00F WCI  16
MAPLE LAKE     CLOUDY    22  14  70 E3        29.99F
$$
MNZ037-044-045-052-053-260200-
   East Central Minnesota

CITY           SKY/WX    TMP DP  RH WIND       PRES   REMARKS
PRINCETON      CLOUDY    21  12  68 CALM      29.99F
MORA           CLOUDY    19  12  73 S5        30.02S WCI  13
CAMBRIDGE      CLOUDY    21  12  68 CALM      29.99F
RUSH CITY      CLOUDY    19  14  78 CALM      30.02S
MOOSE LAKE     CLOUDY    18  12  79 CALM      29.99S
HINCKLEY       CLOUDY    19  14  79 CALM      30.01S
CLOQUET        CLOUDY    18  10  73 S3        29.99R
MCGREGOR       MOCLDY    18  10  73 CALM      29.99S
$$
MNZ071>073-080-081-089-090-097-098-260200-
   Southwest Minnesota

CITY           SKY/WX    TMP DP  RH WIND       PRES   REMARKS
MONTEVIDEO     CLOUDY    25  19  80 S10       29.92F WCI  15
GRANITE FALLS  CLOUDY    28  19  68 E8        29.93F WCI  20
CANBY          CLOUDY    30  24  79 SE6       29.90S WCI  24
MARSHALL       CLOUDY    30  19  64 SE8       29.90S WCI  23
REDWOOD FALLS  CLOUDY    27  16  63 SE10      29.94F WCI  17
OLIVIA         CLOUDY    27  16  63 SE9       29.94F WCI  17
PIPESTONE      CLOUDY    30  23  74 SE8       29.85F WCI  23
WINDOM           N/A     28  16  59 SE10      29.92S WCI  19
WORTHINGTON    CLOUDY    30  18  59 S12       29.90F WCI  21
JACKSON        MOCLDY    30  14  51 SE12      29.93F WCI  21
TRACY          CLOUDY    31  21  67 S8        29.90F WCI  23
SLAYTON        CLOUDY    29  21  72 SE8       29.89F WCI  21
$$
MNZ065>067-074>077-082>085-091>093-260200-
   South Central Minnesota

CITY           SKY/WX    TMP DP  RH WIND       PRES   REMARKS
MANKATO        MOCLDY    25  14  63 SE10      29.98F WCI  15
NEW ULM        MOCLDY    25  18  74 SE9       29.96S WCI  15
ST JAMES       PTCLDY    27  18  69 SE9       29.97F WCI  17
FAIRMONT       PTCLDY    27  12  54 SE14      29.96S WCI  15
GLENCOE        CLOUDY    24  18  77 SE6       29.98R WCI  17
FARIBAULT      CLOUDY    25  16  68 SE8       30.01F WCI  16
OWATONNA       CLOUDY    25  16  68 SE12      29.99F WCI  14
WASECA         CLOUDY    23  14  68 SE12      30.00F WCI  12
ALBERT LEA     CLOUDY    25  18  74 SE10      30.00F WCI  15
$$
MNZ078>079-086>088-094>096-260200-
   Southeast Minnesota

CITY           SKY/WX    TMP DP  RH WIND       PRES   REMARKS
ROCHESTER      PTCLDY    18  13  80 S8        30.04S WCI   8
RED WING       CLOUDY    25  16  68 SE7       30.04S WCI  17
STANTON        CLOUDY    26  16  66 S8        30.00F WCI  17
DODGE CENTER   MOCLDY    19  16  86 SE8       30.02S WCI   9
WINONA         MOCLDY    23  16  74 SE5       30.09F WCI  17
AUSTIN         CLOUDY    21  16  79 SE5       30.03S WCI  15
PRESTON        PTCLDY    15  11  84 CALM      30.06R
$$
ABBREVIATIONS USED IN REMARKS
   TC - TEMPERATURES IN CELSIUS
  WCI - WIND CHILL INDEX
   HX - HEAT INDEX
  VSB - VISIBILITY
$$


USA.gov is the U.S. government's official web portal to all federal, state and local government web resources and services.